Weather History for Kake, AK

Change the Weather History Date:

Wednesday, February 13, 2013

  Actual Average Record
Temperature  
Mean Temperature 36 °F -  
Max Temperature 39 °F 36 °F 55 °F (2004)
Min Temperature 32 °F 29 °F 14 °F (2009)
Degree Days  
Heating Degree Days 30    
Moisture  
Dew Point 30 °F    
Average Humidity 78    
Maximum Humidity 87    
Minimum Humidity 70    
Precipitation  
Precipitation 0.05 in - - ()
Sea Level Pressure  
Sea Level Pressure 30.24 in    
Wind  
Wind Speed 8 mph (ESE)    
Max Wind Speed 13 mph    
Max Gust Speed 22 mph    
Visibility 10 miles    
Events      
Averages and records for this station are not official NWS values.
T = Trace of Precipitation, MM = Missing Value Source: NWS Daily Summary

Daily Weather History Graph

Daily Weather History Graph

Search for Another Location

Airport:

Trip Planner

Search our weather history database for the weather conditions in past years. The results will help you decide how hot, cold, wet, or windy it might be!

Date:

Astronomy

Feb. 13, 2013 Rise Set
Actual Time 7:27 AM AKST 4:53 PM AKST
Civil Twilight 6:47 AM AKST 5:33 PM AKST
Nautical Twilight 6:02 AM AKST 6:18 PM AKST
Astronomical Twilight 5:18 AM AKST 7:02 PM AKST
Moon 8:05 AM AKST (2/13) 10:06 PM AKST (2/13)
Length of Visible Light 10h 46m
Length of Day
9h 25m
Waxing Crescent, 15% of the Moon is Illuminated
Feb 13
Waxing Crescent
Feb 17
First Quarter
Feb 25
Full
Mar 4
Last Quarter
Mar 11
New

Hourly Weather History & Observations

Time (AKST) Temp. Windchill Dew Point Humidity Pressure Visibility Wind Dir Wind Speed Gust Speed Precip Events Conditions
12:16 AM 33.8 °F 29.6 °F 26.6 °F 75% 30.19 in 10.0 mi East 4.6 mph - N/A   Overcast
12:36 AM 35.6 °F 29.9 °F 26.6 °F 70% 30.19 in 10.0 mi East 6.9 mph - N/A   Overcast
12:56 AM 35.6 °F 30.7 °F 26.6 °F 70% 30.20 in 10.0 mi East 5.8 mph - N/A   Overcast
1:16 AM 35.6 °F 31.7 °F 26.6 °F 70% 30.21 in 10.0 mi ESE 4.6 mph - N/A   Overcast
1:36 AM 35.6 °F 29.9 °F 26.6 °F 70% 30.21 in 10.0 mi ESE 6.9 mph - N/A   Overcast
1:56 AM 33.8 °F 29.6 °F 26.6 °F 75% 30.22 in 10.0 mi ESE 4.6 mph - N/A   Overcast
2:16 AM 33.8 °F 29.6 °F 28.4 °F 81% 30.22 in 3.0 mi ESE 4.6 mph - N/A   Overcast
2:36 AM 33.8 °F 27.7 °F 28.4 °F 81% 30.23 in 7.0 mi East 6.9 mph - N/A   Overcast
2:56 AM 33.8 °F 27.7 °F 28.4 °F 81% 30.23 in 10.0 mi East 6.9 mph - N/A   Mostly Cloudy
3:16 AM 33.8 °F 28.6 °F 28.4 °F 81% 30.24 in 10.0 mi ESE 5.8 mph - N/A   Overcast
3:36 AM 33.8 °F 27.7 °F 28.4 °F 81% 30.24 in 10.0 mi East 6.9 mph - N/A   Mostly Cloudy
3:56 AM 32.0 °F 24.8 °F 28.4 °F 87% 30.24 in 10.0 mi East 8.1 mph - N/A   Partly Cloudy
4:16 AM 33.8 °F 27.0 °F 28.4 °F 81% 30.24 in 10.0 mi East 8.1 mph - N/A   Mostly Cloudy
4:36 AM 33.8 °F 27.0 °F 28.4 °F 81% 30.24 in 10.0 mi East 8.1 mph - N/A   Mostly Cloudy
4:56 AM 33.8 °F 27.0 °F 30.2 °F 87% 30.24 in 10.0 mi East 8.1 mph - N/A   Overcast
5:16 AM 33.8 °F 27.7 °F 28.4 °F 81% 30.24 in 10.0 mi ESE 6.9 mph - N/A   Overcast
5:56 AM 33.8 °F 27.0 °F 30.2 °F 87% 30.24 in 10.0 mi ESE 8.1 mph - N/A   Overcast
6:16 AM 33.8 °F 27.0 °F 28.4 °F 81% 30.24 in 10.0 mi ESE 8.1 mph - N/A   Overcast
6:36 AM 33.8 °F 27.0 °F 28.4 °F 81% 30.24 in 10.0 mi East 8.1 mph - N/A   Mostly Cloudy
6:56 AM 33.8 °F 28.6 °F 30.2 °F 87% 30.25 in 10.0 mi ESE 5.8 mph - N/A   Overcast
7:16 AM 33.8 °F 27.7 °F 28.4 °F 81% 30.25 in 10.0 mi ESE 6.9 mph - N/A   Overcast
7:36 AM 33.8 °F 27.7 °F 30.2 °F 87% 30.26 in 10.0 mi East 6.9 mph - N/A   Overcast
7:56 AM 33.8 °F 28.6 °F 30.2 °F 87% 30.27 in 10.0 mi ESE 5.8 mph - N/A   Overcast
8:16 AM 33.8 °F 27.7 °F 30.2 °F 87% 30.27 in 10.0 mi East 6.9 mph - N/A   Overcast
8:36 AM 33.8 °F 27.0 °F 30.2 °F 87% 30.28 in 10.0 mi ESE 8.1 mph - N/A   Overcast
8:56 AM 35.6 °F 29.2 °F 30.2 °F 81% 30.28 in 10.0 mi ESE 8.1 mph - N/A   Overcast
9:16 AM 35.6 °F 29.2 °F 30.2 °F 81% 30.28 in 10.0 mi ESE 8.1 mph - N/A   Overcast
9:36 AM 35.6 °F 29.9 °F 30.2 °F 81% 30.28 in 10.0 mi ESE 6.9 mph - N/A   Overcast
9:56 AM 35.6 °F 29.2 °F 30.2 °F 81% 30.28 in 10.0 mi ESE 8.1 mph - N/A   Overcast
10:16 AM 35.6 °F 28.0 °F 30.2 °F 81% 30.29 in 10.0 mi ESE 10.4 mph - N/A   Overcast
10:36 AM 35.6 °F 28.6 °F 30.2 °F 81% 30.29 in 10.0 mi ESE 9.2 mph - N/A   Overcast
10:56 AM 37.4 °F 29.8 °F 30.2 °F 75% 30.29 in 10.0 mi ESE 11.5 mph - N/A   Overcast
11:16 AM 37.4 °F 31.4 °F 30.2 °F 75% 30.29 in 10.0 mi ESE 8.1 mph - N/A   Overcast
11:36 AM 37.4 °F 30.8 °F 32.0 °F 81% 30.30 in 10.0 mi ESE 9.2 mph - N/A   Overcast
11:56 AM 37.4 °F 30.8 °F 32.0 °F 81% 30.29 in 10.0 mi ESE 9.2 mph - N/A   Mostly Cloudy
12:16 PM 37.4 °F 30.8 °F 32.0 °F 81% 30.29 in 10.0 mi ESE 9.2 mph - N/A   Overcast
12:36 PM 37.4 °F 30.3 °F 33.8 °F 87% 30.29 in 10.0 mi SE 10.4 mph - N/A   Mostly Cloudy
12:56 PM 39.2 °F 33.0 °F 33.8 °F 81% 30.29 in 10.0 mi SE 9.2 mph - N/A   Mostly Cloudy
1:16 PM 39.2 °F 33.6 °F 32.0 °F 75% 30.28 in 10.0 mi SE 8.1 mph - N/A   Mostly Cloudy
1:36 PM 39.2 °F 32.0 °F 32.0 °F 75% 30.28 in 10.0 mi SE 11.5 mph 17.3 mph N/A   Overcast
1:56 PM 39.2 °F 31.6 °F 30.2 °F 70% 30.28 in 10.0 mi SE 12.7 mph 17.3 mph N/A   Overcast
2:16 PM 37.4 °F 30.3 °F 30.2 °F 75% 30.27 in 10.0 mi ESE 10.4 mph - N/A   Overcast
2:36 PM 37.4 °F 29.8 °F 30.2 °F 75% 30.27 in 10.0 mi ESE 11.5 mph 16.1 mph N/A   Overcast
2:56 PM 37.4 °F 30.8 °F 30.2 °F 75% 30.27 in 10.0 mi ESE 9.2 mph - N/A   Overcast
3:16 PM 37.4 °F 30.3 °F 30.2 °F 75% 30.25 in 10.0 mi ESE 10.4 mph 16.1 mph N/A   Overcast
3:36 PM 37.4 °F 30.8 °F 30.2 °F 75% 30.24 in 10.0 mi ESE 9.2 mph - N/A   Overcast
3:56 PM 37.4 °F 30.3 °F 30.2 °F 75% 30.24 in 10.0 mi ESE 10.4 mph - N/A   Overcast
4:16 PM 37.4 °F 31.4 °F 30.2 °F 75% 30.24 in 10.0 mi East 8.1 mph - N/A   Overcast
4:36 PM 37.4 °F 31.4 °F 30.2 °F 75% 30.25 in 10.0 mi East 8.1 mph - N/A   Overcast
4:56 PM 37.4 °F 30.8 °F 30.2 °F 75% 30.25 in 10.0 mi East 9.2 mph - N/A   Overcast
5:16 PM 37.4 °F 29.8 °F 30.2 °F 75% 30.24 in 10.0 mi ESE 11.5 mph 18.4 mph N/A   Overcast
5:36 PM 37.4 °F 30.3 °F 28.4 °F 70% 30.23 in 10.0 mi ESE 10.4 mph 16.1 mph N/A   Mostly Cloudy
5:56 PM 37.4 °F 30.8 °F 28.4 °F 70% 30.23 in 10.0 mi ESE 9.2 mph - N/A   Mostly Cloudy
6:16 PM 37.4 °F 30.3 °F 28.4 °F 70% 30.22 in 10.0 mi ESE 10.4 mph - N/A   Overcast
6:36 PM 37.4 °F 30.3 °F 28.4 °F 70% 30.22 in 10.0 mi ESE 10.4 mph - N/A   Overcast
6:56 PM 37.4 °F 30.3 °F 28.4 °F 70% 30.21 in 10.0 mi ESE 10.4 mph 16.1 mph N/A   Overcast
7:16 PM 37.4 °F 29.8 °F 28.4 °F 70% 30.22 in 10.0 mi ESE 11.5 mph 16.1 mph N/A   Overcast
7:36 PM 37.4 °F 30.8 °F 28.4 °F 70% 30.21 in 10.0 mi ESE 9.2 mph - N/A   Overcast
7:56 PM 37.4 °F 30.3 °F 28.4 °F 70% 30.20 in 10.0 mi ESE 10.4 mph 17.3 mph N/A   Overcast
8:16 PM 35.6 °F 29.2 °F 30.2 °F 81% 30.21 in 9.0 mi East 8.1 mph - 0.01 in   Overcast
8:36 PM 35.6 °F 27.5 °F 30.2 °F 81% 30.21 in 10.0 mi East 11.5 mph - 0.01 in   Overcast
8:56 PM 35.6 °F 28.6 °F 30.2 °F 81% 30.21 in 10.0 mi East 9.2 mph - 0.01 in   Overcast
9:16 PM 35.6 °F 28.6 °F 30.2 °F 81% 30.21 in 9.0 mi East 9.2 mph - 0.01 in   Overcast
9:36 PM 35.6 °F 27.5 °F 30.2 °F 81% 30.20 in 7.0 mi East 11.5 mph - 0.02 in   Overcast
9:56 PM 35.6 °F 27.5 °F 30.2 °F 81% 30.20 in 10.0 mi East 11.5 mph 21.9 mph 0.03 in   Overcast
10:16 PM 35.6 °F 27.1 °F 30.2 °F 81% 30.19 in 10.0 mi ESE 12.7 mph 16.1 mph 0.01 in   Overcast
10:36 PM 35.6 °F 28.0 °F 30.2 °F 81% 30.18 in 10.0 mi East 10.4 mph - 0.01 in   Mostly Cloudy
10:56 PM 35.6 °F 28.0 °F 30.2 °F 81% 30.18 in 10.0 mi East 10.4 mph 16.1 mph 0.01 in   Overcast
11:16 PM 35.6 °F 28.0 °F 30.2 °F 81% 30.18 in 10.0 mi East 10.4 mph 18.4 mph N/A   Overcast
11:36 PM 35.6 °F 28.0 °F 30.2 °F 81% 30.17 in 10.0 mi ESE 10.4 mph 17.3 mph N/A   Overcast
11:56 PM 35.6 °F 27.1 °F 30.2 °F 81% 30.17 in 10.0 mi ESE 12.7 mph 17.3 mph N/A   Overcast